sat.trackr.live / text

‹ back to catalog

KUIPER-00504

NORAD 68885 · 2026-095X

PAYLOAD ACTIVE UNKNOWN

§ Identity

Operator
Country
US
Launch date
2026-04-28
Launch site
AFETR
Launch vehicle
Mass (kg)
RCS (m²)

External: N2YO · Heavens-Above · Gunter

§ Orbital elements

Epoch: 2026-09-19T05:29:51.885600Z

Period
97.30 min
Inclination
51.9008°
Eccentricity
0.0000756
Mean motion
14.79929502 rev/d
Perigee alt
629.0 km
Apogee alt
630.1 km
Semi-major
7,007.7 km
B*
3.1209e-4
RAAN
199.8150°
Arg perigee
83.1065°
Mean anomaly
276.9983°
Rev number
2,147

§ Raw data

KUIPER-005041 68885U 26095X   26262.22907275  .00002159  00000+0  31209-3 0  99932 68885  51.9008 199.8150 0000756  83.1065 276.9983 14.79929502 21470

JSON: /api/v1/satellites/68885 · /tle

For live sub-satellite position, see the globe view (requires WebGL).

§ Visibility from observer

Set your observer location to see the next 7 days of passes ≥ 10°. The values pass through the URL so the page stays shareable.

No JS? Fill the form by hand. The geolocation button needs JavaScript.